Weather History for Mount Pleasant, IA

Change the Weather History Date:

Wednesday, February 20, 2013

  Actual Average Record
Temperature  
Mean Temperature 18 °F -  
Max Temperature 27 °F 40 °F 66 °F (1983)
Min Temperature 8 °F 22 °F -9 °F (1958)
Degree Days  
Heating Degree Days 48    
Moisture  
Dew Point 5 °F    
Average Humidity 54    
Maximum Humidity 68    
Minimum Humidity 37    
Precipitation  
Precipitation 0.00 in - - ()
Sea Level Pressure  
Sea Level Pressure 30.37 in    
Wind  
Wind Speed 9 mph (North)    
Max Wind Speed 15 mph    
Max Gust Speed 20 mph    
Visibility 10 miles    
Events      
Averages and records for this station are not official NWS values.
T = Trace of Precipitation, MM = Missing Value Source: NWS Daily Summary

Daily Weather History Graph

Daily Weather History Graph

Search for Another Location

Airport:

Trip Planner

Search our weather history database for the weather conditions in past years. The results will help you decide how hot, cold, wet, or windy it might be!

Date:

Astronomy

Feb. 20, 2013 Rise Set
Actual Time 6:53 AM CST 5:46 PM CST
Civil Twilight 6:25 AM CST 6:14 PM CST
Nautical Twilight 5:53 AM CST 6:46 PM CST
Astronomical Twilight 5:21 AM CST 7:18 PM CST
Moon 1:07 PM CST (2/20) 3:14 AM CST (2/20)
Length of Visible Light 11h 49m
Length of Day
10h 53m
Waxing Gibbous, 76% of the Moon is Illuminated
Feb 20
Waxing Gibbous
Feb 25
Full
Mar 4
Last Quarter
Mar 11
New
Mar 19
First Quarter

Hourly Weather History & Observations

Time (CST) Temp. Windchill Dew Point Humidity Pressure Visibility Wind Dir Wind Speed Gust Speed Precip Events Conditions
12:15 AM 15.3 °F 0.2 °F 2.1 °F 56% 30.32 in 10.0 mi NNW 15.0 mph 19.6 mph N/A   Clear
12:35 AM 14.0 °F -0.8 °F 0.9 °F 56% 30.34 in 10.0 mi NW 13.8 mph - N/A   Clear
12:55 AM 13.1 °F 0.1 °F 0.3 °F 57% 30.35 in 10.0 mi NW 10.4 mph 16.1 mph N/A   Clear
1:15 AM 12.7 °F -0.4 °F -0.4 °F 56% 30.36 in 10.0 mi NW 10.4 mph 16.1 mph N/A   Clear
1:35 AM 12.2 °F -1.8 °F -0.2 °F 58% 30.36 in 10.0 mi NNW 11.5 mph - N/A   Clear
1:55 AM 11.8 °F -0.7 °F -0.9 °F 57% 30.36 in 10.0 mi NW 9.2 mph - N/A   Clear
2:15 AM 11.3 °F -2.2 °F -0.8 °F 58% 30.37 in 10.0 mi NNW 10.4 mph - N/A   Clear
2:35 AM 11.1 °F -2.4 °F -1.1 °F 58% 30.38 in 10.0 mi NNW 10.4 mph - N/A   Clear
2:55 AM 10.6 °F -5.2 °F -1.7 °F 58% 30.37 in 10.0 mi NNW 13.8 mph 19.6 mph N/A   Clear
3:15 AM 10.2 °F -5.7 °F -1.7 °F 59% 30.37 in 10.0 mi NNW 13.8 mph - N/A   Clear
3:35 AM 10.0 °F -5.2 °F -1.5 °F 60% 30.37 in 10.0 mi NNW 12.7 mph - N/A   Clear
3:55 AM 9.5 °F -5.9 °F -1.7 °F 61% 30.36 in 10.0 mi NNW 12.7 mph - N/A   Clear
4:15 AM 9.5 °F -5.9 °F -1.7 °F 61% 30.37 in 10.0 mi North 12.7 mph - N/A   Clear
4:35 AM 9.3 °F -7.4 °F -2.2 °F 60% 30.36 in 10.0 mi NNW 15.0 mph - N/A   Clear
4:55 AM 9.1 °F -5.6 °F -2.2 °F 60% 30.36 in 10.0 mi NNW 11.5 mph - N/A   Clear
5:15 AM 9.0 °F -6.6 °F -2.2 °F 61% 30.36 in 10.0 mi NNW 12.7 mph - N/A   Clear
5:35 AM 8.8 °F -6.8 °F -2.2 °F 61% 30.36 in 10.0 mi NNW 12.7 mph - N/A   Clear
5:55 AM 8.6 °F -4.7 °F -2.2 °F 62% 30.36 in 10.0 mi NNW 9.2 mph - N/A   Clear
6:15 AM 8.6 °F -6.3 °F -2.4 °F 61% 30.37 in 10.0 mi NNW 11.5 mph - N/A   Clear
6:55 AM 8.6 °F -1.3 °F -2.6 °F 61% 30.39 in 10.0 mi NW 5.8 mph - N/A   Clear
7:15 AM 8.8 °F -2.4 °F -2.2 °F 61% 30.39 in 10.0 mi NNW 6.9 mph - N/A   Clear
7:35 AM 9.5 °F -2.6 °F -2.2 °F 59% 30.40 in 10.0 mi NNW 8.1 mph - N/A   Clear
7:55 AM 10.2 °F -2.7 °F -2.2 °F 57% 30.40 in 10.0 mi North 9.2 mph - N/A   Clear
8:15 AM 10.8 °F -2.0 °F -1.8 °F 57% 30.41 in 10.0 mi NNW 9.2 mph - N/A   Clear
8:35 AM 11.7 °F 1.1 °F -1.3 °F 56% 30.41 in 10.0 mi North 6.9 mph - N/A   Clear
9:15 AM 14.0 °F 5.1 °F -0.4 °F 53% 30.42 in 10.0 mi NNW 5.8 mph - N/A   Clear
9:35 AM 14.9 °F - -0.0 °F 52% 30.43 in 10.0 mi Calm Calm - N/A   Clear
9:55 AM 15.8 °F 10.2 °F -0.4 °F 49% 30.44 in 10.0 mi West 3.5 mph - N/A   Clear
10:15 AM 16.5 °F - -0.8 °F 47% 30.43 in 10.0 mi Calm Calm - N/A   Clear
10:35 AM 17.6 °F 9.3 °F -0.4 °F 45% 30.42 in 10.0 mi NNW 5.8 mph - N/A   Clear
10:55 AM 19.2 °F 14.1 °F 0.7 °F 44% 30.44 in 10.0 mi NW 3.5 mph - N/A   Clear
11:15 AM 21.2 °F 14.9 °F 1.2 °F 42% 30.43 in 10.0 mi WNW 4.6 mph - N/A   Clear
11:35 AM 20.3 °F 15.4 °F -0.4 °F 40% 30.44 in 10.0 mi NW 3.5 mph - N/A   Clear
11:55 AM 21.9 °F 14.5 °F 1.0 °F 40% 30.44 in 10.0 mi West 5.8 mph - N/A   Clear
12:15 PM 22.6 °F - -0.2 °F 37% 30.43 in 10.0 mi Calm Calm - N/A   Clear
12:35 PM 23.9 °F - 1.0 °F 37% 30.41 in 10.0 mi Calm Calm - N/A   Clear
12:55 PM 24.6 °F 17.7 °F 2.5 °F 39% 30.40 in 10.0 mi NW 5.8 mph - N/A   Clear
1:15 PM 25.3 °F 21.1 °F 3.4 °F 39% 30.38 in 10.0 mi North 3.5 mph - N/A   Clear
1:35 PM 25.7 °F 19.0 °F 5.5 °F 42% 30.36 in 10.0 mi NNE 5.8 mph - N/A   Clear
1:55 PM 26.2 °F 22.1 °F 6.8 °F 44% 30.36 in 10.0 mi NNE 3.5 mph - N/A   Clear
2:15 PM 26.2 °F 18.6 °F 7.7 °F 46% 30.35 in 10.0 mi North 6.9 mph - N/A   Clear
2:55 PM 26.6 °F - 7.0 °F 43% 30.36 in 10.0 mi Calm Calm - N/A   Clear
3:15 PM 27.0 °F - 6.8 °F 43% 30.36 in 10.0 mi Calm Calm - N/A   Clear
3:35 PM 27.1 °F - 7.5 °F 44% 30.35 in 10.0 mi Calm Calm - N/A   Clear
3:55 PM 27.5 °F - 7.7 °F 43% 30.35 in 10.0 mi Calm Calm - N/A   Clear
4:15 PM 27.5 °F - 8.4 °F 45% 30.35 in 10.0 mi Calm Calm - N/A   Clear
4:35 PM 27.5 °F - 8.2 °F 44% 30.35 in 10.0 mi Calm Calm - N/A   Clear
4:55 PM 27.1 °F 23.2 °F 9.0 °F 46% 30.35 in 10.0 mi NE 3.5 mph - N/A   Clear
5:15 PM 27.3 °F 23.4 °F 10.0 °F 48% 30.33 in 10.0 mi NE 3.5 mph - N/A   Clear
5:35 PM 27.0 °F 21.6 °F 10.2 °F 49% 30.32 in 10.0 mi NE 4.6 mph - N/A   Clear
5:55 PM 26.6 °F 19.1 °F 11.5 °F 53% 30.33 in 10.0 mi ENE 6.9 mph - N/A   Clear
6:15 PM 26.4 °F 18.9 °F 12.0 °F 55% 30.32 in 10.0 mi NE 6.9 mph - N/A   Clear
6:35 PM 25.9 °F 19.2 °F 12.4 °F 57% 30.32 in 10.0 mi ENE 5.8 mph - N/A   Clear
6:55 PM 26.1 °F 19.4 °F 12.6 °F 57% 30.32 in 10.0 mi ENE 5.8 mph - N/A   Clear
7:15 PM 25.7 °F 19.0 °F 13.5 °F 60% 30.32 in 10.0 mi East 5.8 mph - N/A   Clear
7:35 PM 25.7 °F 19.0 °F 14.0 °F 61% 30.32 in 10.0 mi East 5.8 mph - N/A   Clear
7:55 PM 25.7 °F 19.0 °F 14.0 °F 61% 30.32 in 10.0 mi East 5.8 mph - N/A   Clear
8:15 PM 25.7 °F 19.0 °F 13.8 °F 61% 30.32 in 10.0 mi ENE 5.8 mph - N/A   Clear
8:35 PM 25.7 °F 19.0 °F 13.6 °F 60% 30.32 in 10.0 mi ENE 5.8 mph - N/A   Clear
8:55 PM 25.7 °F 21.5 °F 13.3 °F 59% 30.33 in 10.0 mi East 3.5 mph - N/A   Clear
9:15 PM 25.7 °F 19.0 °F 13.1 °F 59% 30.34 in 10.0 mi East 5.8 mph - N/A   Clear
9:35 PM 25.2 °F 20.9 °F 14.4 °F 64% 30.34 in 10.0 mi ESE 3.5 mph - N/A   Clear
9:55 PM 24.3 °F - 13.6 °F 64% 30.35 in 10.0 mi Calm Calm - N/A   Clear
10:15 PM 24.4 °F - 14.0 °F 65% 30.36 in 10.0 mi Calm Calm - N/A   Clear
10:35 PM 24.4 °F 20.1 °F 14.2 °F 65% 30.35 in 10.0 mi ESE 3.5 mph - N/A   Scattered Clouds
10:55 PM 25.2 °F 20.9 °F 14.7 °F 65% 30.35 in 10.0 mi East 3.5 mph - N/A   Overcast
11:15 PM 24.3 °F 17.3 °F 14.0 °F 65% 30.34 in 10.0 mi ESE 5.8 mph - N/A   Overcast
11:35 PM 24.3 °F 16.3 °F 14.9 °F 68% 30.33 in 10.0 mi East 6.9 mph - N/A   Mostly Cloudy
11:55 PM 24.3 °F 13.9 °F 14.9 °F 68% 30.33 in 10.0 mi East 10.4 mph - N/A   Scattered Clouds